Regional Weather Roundup
Issued by NWS

Home | Current Version | Previous Version | Text Only | Print | Product List | Glossary Off
Versions: 1 2 3 4 5 6 7 8 9 10 11 12 13 14 15 16 17 18 19 20 21 22 23 24 25 26 27 28 29 30 31 32 33 34 35 36 37 38 39 40 41 42 43 44 45 46 47 48 49 50

000
ASUS43 KTOP 292208
RWRKS

WEATHER ROUNDUP FOR KANSAS
NATIONAL WEATHER SERVICE GOODLAND KS
500 PM CDT TUE JUL 29 2014

NOTE:  "FAIR" INDICATES FEW OR NO CLOUDS BELOW 12,000 FEET WITH NO
SIGNIFICANT WEATHER AND/OR OBSTRUCTIONS TO VISIBILITY.

KSZ001>006-013>018-027>032-041>047-292300-
NORTHWEST KANSAS

CITY           SKY/WX    TMP DP  RH WIND       PRES   REMARKS
GOODLAND       CLOUDY    84  59  42 SE14      30.11F
HAYS           PTSUNNY   88  59  37 SE9       30.09F
HILL CITY      MOSUNNY   89  56  32 SE12G22   30.09F
RUSSELL        PTSUNNY   88  59  37 SE10      30.08F
$$

KSZ061>065-074>080-084>089-292300-
SOUTHWEST KANSAS

CITY           SKY/WX    TMP DP  RH WIND       PRES   REMARKS
DODGE CITY     MOSUNNY   81  59  47 S16G24    30.13F
ELKHART          N/A     80  64  58 SE15        N/A
GARDEN CITY    SUNNY     80  62  54 S14G22    30.11F
GREAT BEND     PTSUNNY   88  61  40 S10       30.07F
LIBERAL        PTSUNNY   75  64  69 S13       30.15F
PRATT          MOSUNNY   86  57  37 S8G17     30.12F
$$

KSZ066>073-081>083-090>101-292300-
SOUTHEAST KANSAS

CITY           SKY/WX    TMP DP  RH WIND       PRES   REMARKS
CHANUTE        CLOUDY    75  59  57 N5        30.14F
COFFEYVILLE    PTSUNNY   83  59  44 VRB6      30.12F
HUTCHINSON     MOSUNNY   89  58  34 VRB5      30.09F
MEDICINE LODGE   N/A     86  62  44 W15       30.09F
NEWTON         PTSUNNY   86  57  37 NE3       30.14F
PARSONS        PTSUNNY   78  61  55 NE5       30.14F
WICHITA INTL   MOSUNNY   88  61  40 SE7       30.08F
WICHITA JABRA  MOSUNNY   89  63  41 SE9       30.09F
WICHITA MCCONL MOSUNNY   88  59  36 E10       30.09F
WINFIELD       PTSUNNY   89  62  40 SE9       30.09F
$$

KSZ007>012-019>026-033>040-048>060-102>105-292300-
NORTHEAST KANSAS

CITY           SKY/WX    TMP DP  RH WIND       PRES   REMARKS
CONCORDIA      MOSUNNY   80  58  46 NE9       30.13F
EMPORIA        CLOUDY    75  57  53 VRB6      30.13F
LAWRENCE       MOSUNNY   86  58  38 NE5       30.11F
MANHATTAN      MOSUNNY   83  57  41 NE8       30.12F
MARYSVILLE     MOSUNNY   82  55  39 N8        30.12F
OLATHE IND     MOSUNNY   83  55  38 MISG      30.13F
OLATHE EXE     MOSUNNY   80  55  42 NW6       30.12F
SALINA         MOSUNNY   84  58  40 E14       30.10F
TOPEKA BILLARD PTSUNNY   84  56  38 CALM      30.11F
TOPEKA FORBES  MOSUNNY   84  56  38 W8        30.11F
$$


USA.gov is the U.S. government's official web portal to all federal, state and local government web resources and services.